Tracking 29892 objects as of 21-Nov-2024
HD Live streaming from Space Station
objects crossing your sky now

DMSP 5D-2 F13 DEB

Track DMSP 5D-2 F13 DEB now!
10-day predictions


NORAD ID: 40468
Int'l Code: 1995-015BL
Perigee: 774.9 km
Apogee: 790.5 km
Inclination: 98.7 °
Period: 100.4 minutes
Semi major axis: 7153 km
RCS: Unknown
Launch date: March 24, 1995
Source: United States (US)
Launch site: AIR FORCE WESTERN TEST RANGE (AFWTR)

Note: This is SATELLITE DEBRIS
Your satellite tracking list
Your tracking list is empty




NASA's NSSDC Master Catalog

Two Line Element Set (TLE):
1 40468U 95015BL  24325.02819489  .00010364  00000-0  36580-2 0  9997
2 40468  98.6668 352.0325 0010957 145.9881 214.2008 14.34851180503690
Source of the keplerian elements: AFSPC